COSMOS 2251 DEB

Satellite information

Favourite Embed

Satellite Type and Status

DEBRISIN ORBIT

Key statistics

Satellite COSMOS 2251 DEB at a glance.

Uptime

11868

Days in orbit

Revolutions

≈ 14.7

Per day

Orbit

LEO

Low Earth Orbit

Inclination

74.1

Latest

Satellite identification and parameters

Extended collection of information and parameters for COSMOS 2251 DEB.

Object identification

Identified? True

Debris? True

Object name: COSMOS 2251 DEB

International designator: 1993-036WG

Object number (NORAD): 34611

Object ID (CCSDS): 34611

Country: COMMONWEALTH OF INDEPENDENT STATES (CIS)

Current information (Y/N): Y

RCS size: SMALL

Orbital parameters

Period: 97.993 minutes

Inclination: 74.0526 deg

SMA: 7040.824 km

Apoapsis: 678.647 km

Periapsis: 646.73 km

RAAN: 102.0932 deg

Eccentricy: 0.00226657

Argument of periapsis: 143.9949 deg

Mean anomaly: 281.3367 deg

Mean motion: 14.6949308 rev/day

Mean motion (dot): 0.000162 rev/day2

B* drag term: 0.0027204128 1/REarth

Two-line elements (TLE)

Creation date: Dec. 12, 2025, 10:14 a.m.

Reference frame: TEME

Reference center: EARTH

Epoch: Dec. 12, 2025, 3:46 a.m. UTC

TLE line 0: 0 COSMOS 2251 DEB

TLE line 1: 1 34611U 93036WG 25346.15710101 .00016200 00000-0 27204-2 0 9998

TLE line 2: 2 34611 74.0526 102.0932 0022666 143.9949 281.3367 14.69493080883822

Live tracking on map

Real-time ground track for satellite COSMOS 2251 DEB.

In-orbit conjunctions

A list of the most updated potential collisions computed for object COSMOS 2251 DEB.

Target Orbit TCA Probability of collision Miss distance Type
FR 1 LEO 2025-12-04 03:40:58 0.0003534121 131.0 (m) PAYLOAD
PICOSAT 5 SSO 2024-11-12 16:39:55 0.0001946449 593.0 (m) PAYLOAD
COSMOS 2441 SSO 2024-09-28 13:02:01 0.0004444293 648.0 (m) PAYLOAD
FENGYUN 1C DEB SSO 2024-09-24 16:28:46 0.0001253827 306.0 (m) DEBRIS

Associated space launch

Military communications satellite. Destroyed in a collision with Iridium 33.

COSMOS 2251 DEB was lifted into orbit during the mission ‘Kosmos-3M | Strela-2M 51’, on board a Kosmos-3M space rocket.

The launch took place on June 16, 1993, 4:17 a.m. from 132/1 (132L).

For more information about the launch, click the button.

Launch to space Kosmos-3M | Strela-2M 51
Kosmos-3M | Strela-2M 51

Agency: N/A

Status: Launch Successful

Launch date: June 16, 1993, 4:17 a.m. UTC

Rocket: Kosmos-3M

Launch pad: 132/1 (132L)

Location: Plesetsk Cosmodrome, Russian Federation

...

Latest news about this satellite

There are no fresh news available about this satellite. Check back as we update our databases every day.


Newsletter sign-up

Weekly statistics, charts and insights to help you stay on top of the space industry.